FENGYUN 1C DEB, 31568

Orbit data source: Space-Track

FENGYUN 1C DEB, 31568 is space debris in SSO originally from a launch on Mon, 10 May 1999 UTC launched from the Taiyaun Space Center, China (TSC). Fengyun 1C debris stems from the Chinese weather satellite Fengyun-1C, which was intentionally destroyed by a Chinese anti-satellite missile in 2007. This event dramatically increased the amount of space debris, with thousands of trackable fragments posing hazards to satellites and human spaceflight. The Fengyun 1C debris cloud has become a focal point in discussions about space sustainability and the need for international regulations to prevent the creation of new debris.

Loading next visibility...
Identifier
31568, 1999-025BZK
Orbit
SSO
Country
Flag of CNCN / PRC
Related business
Manufacturer
Unknown
Mission
Spacecraft
Bus & Motor
Unknown
Mass
Unknown
Launch date (UTC)
1999-05-10 (27 years ago)
Launch vehicle
Unknown
Launch site
Taiyaun Space Center, China (TSC)
Object type
Payload
Rocket body
Debris
Shape & HBR
Unknown shape, 0.1 m
Radar Cross Section
Medium (>0.1 m² and <1 m²)

Expand to show TLE details & history
Last TLE update: 4 days ago

TLE from 4 days ago
0 FENGYUN 1C DEB
1 31568U 99025BZK 26169.57403429  .00003320  00000-0  19482-2 0  9990
2 31568 102.0474 117.3409 0129803  15.9698 344.5493 14.05097384972167
Epoch: 2026-06-18T13:46Z
TLE epoch observation values (Epoch: 2026-06-18T13:46:36.562Z)
Latitude
-0°
Longitude
3.87315°
Altitude
788.278 km
Speed
7.506 km/s
True Right ascension
07h 49m 21s
True Declination
0° 00' 00"
Sunlit
Object was in daylight at epoch
Visualization orbit readout
Latitude
Unknown
Longitude
Unknown
Altitude
Unknown
Speed
Unknown
Apparent Right ascension
Unknown
Apparent Declination
Unknown
Sunlit
N/A
Visualization observer readout
Local Sidereal Time
21:48:31
Azimuth
Unknown
Elevation
Unknown
Doppler factor
Unknown
Orbital elements
Apogee altitude
967.692 km
Perigee altitude
779.434 km
Semi-major axis
7,251.7 km
Eccentricity
0.01298
Inclination
102.0474°
RAAN
117.3409°
Arg. of periapsis
15.9698°
True anomaly
344.14675°
Mean anomaly
344.5493°
Eccentric anomaly
344.34866°
Mean motion
3.51466 °/min
Orbital period
102.43 mins
BSTAR
0.0019482
Loading maneuver chart data...
Computing Atmospheric mass density...

Documentation

Showing up to 5 results
|